Find Local Weather

World > North America > United States > Indiana

Winamac, Indiana Regional Weather

Lat: 41.05N, Lon: 86.6W
Wx Zone: INZ013
Feedback

Winamac, IN Regional Weather

Expires:201903230500;;778651
ASUS43 KIND 230409
RWRIN 

WEATHER ROUNDUP FOR INDIANA
NATIONAL WEATHER SERVICE INDIANAPOLIS IN
1200 AM EDT SAT MAR 23 2019

NOTE: "FAIR" INDICATES FEW OR NO CLOUDS BELOW 12,000 FEET WITH NO
SIGNIFICANT WEATHER AND/OR OBSTRUCTIONS TO VISIBILITY.

* - STATION DOES NOT REPORT WEATHER SUCH AS PRECIPITATION OR FOG.

+ - STATION NOT QUALITY CONTROLLED BY THE NATIONAL WEATHER SERVICE.
    USE DATA WITH CAUTION...ESPECIALLY DEWPOINT AND RELATIVE
    HUMIDITY OBSERVATIONS.


INZ001>003-010>013-019-020-230500-
NORTHWEST INDIANA
  
CITY           SKY/WX    TMP DP  RH WIND       PRES   REMARKS
KNOX *+        FAIR      28  23  80 SW3       30.25R                  
LA PORTE +     FAIR      30  25  81 N9        30.25R WCI  22          
MICHIGAN CITY+ FAIR      32  27  80 N6        30.26R WCI  26          
MONTICELLO +   FAIR      29  22  75 N6        30.24S WCI  23          
RENSSELAER +   FAIR      30  27  86 CALM      30.24F                  
VALPARAISO     FAIR      30  23  75 NW3       30.25R                  

$$


SKY/WX - Weather  TMP - Temperature  DP - Dew Point  RH - Relative Humidity
WIND - Wind Direction/Speed PRES - Barometric Pressure VSB - Visibility
WCI - Wind Chill Index E13G22 Wind - East Wind 13 mph/Gusts of 22 mph